contact:dominique.lefevre@mio.osupytheas.fr, maurice.libes@osupytheas.fr, didier.mallarino@osupytheas.fr
Project:EMSO http://www.emso-fr.org/EMSO-France
Depth: 2436.0 m
Title:EMSO Ligure Ouest : Data MII capteur MICROCAT
DateTime_Computer,Latitude,Longitude,Temperature,Conductivity,Pressure,DateTime_Instrument
DateTime_Computer,Latitude,Longitude,degC,S m-1,dbar,DateTime_Instrument
2021-02-07T00:00:03Z,42.805,6.029,13.3021,4.60055,2470.18,2021-2-07T02:01:06Z
2021-02-07T00:03:06Z,42.805,6.029,13.3000,4.60028,2470.194,2021-2-07T02:04:09Z
2021-02-07T00:06:09Z,42.805,6.029,13.3004,4.60026,2470.217,2021-2-07T02:07:12Z
2021-02-07T00:09:12Z,42.805,6.029,13.3008,4.60035,2470.194,2021-2-07T02:10:15Z
2021-02-07T00:12:15Z,42.805,6.029,13.3031,4.60039,2470.18,2021-2-07T02:13:18Z
2021-02-07T00:15:18Z,42.805,6.029,13.3017,4.60044,2470.18,2021-2-07T02:16:21Z
2021-02-07T00:18:21Z,42.805,6.029,13.3008,4.60043,2470.217,2021-2-07T02:19:24Z
2021-02-07T00:21:24Z,42.805,6.029,13.3013,4.60037,2470.194,2021-2-07T02:22:28Z
2021-02-07T00:24:27Z,42.805,6.029,13.3015,4.60060,2470.227,2021-2-07T02:25:31Z
2021-02-07T00:27:31Z,42.805,6.029,13.3006,4.60046,2470.18,2021-2-07T02:28:34Z
2021-02-07T00:30:34Z,42.805,6.029,13.3012,4.60036,2470.227,2021-2-07T02:31:37Z
2021-02-07T00:33:37Z,42.805,6.029,13.3026,4.60051,2470.217,2021-2-07T02:34:40Z
2021-02-07T00:36:40Z,42.805,6.029,13.3013,4.60053,2470.203,2021-2-07T02:37:43Z
2021-02-07T00:39:43Z,42.805,6.029,13.3008,4.60054,2470.24,2021-2-07T02:40:46Z
2021-02-07T00:42:46Z,42.805,6.029,13.3014,4.60042,2470.203,2021-2-07T02:43:49Z
2021-02-07T00:45:49Z,42.805,6.029,13.3014,4.60072,2470.203,2021-2-07T02:46:53Z
2021-02-07T00:48:52Z,42.805,6.029,13.3037,4.60047,2470.217,2021-2-07T02:49:56Z
2021-02-07T00:51:56Z,42.805,6.029,13.3031,4.60062,2470.203,2021-2-07T02:52:59Z
2021-02-07T00:54:59Z,42.805,6.029,13.3015,4.60059,2470.227,2021-2-07T02:56:02Z
2021-02-07T00:58:02Z,42.805,6.029,13.3019,4.60059,2470.227,2021-2-07T02:59:05Z
2021-02-07T01:01:05Z,42.805,6.029,13.3007,4.60084,2470.227,2021-2-07T03:02:08Z
2021-02-07T01:04:08Z,42.805,6.029,13.3024,4.60043,2470.18,2021-2-07T03:05:11Z
2021-02-07T01:07:11Z,42.805,6.029,13.3024,4.60046,2470.264,2021-2-07T03:08:14Z
2021-02-07T01:10:14Z,42.805,6.029,13.3024,4.60021,2470.227,2021-2-07T03:11:18Z
2021-02-07T01:13:17Z,42.805,6.029,13.3011,4.60025,2470.213,2021-2-07T03:14:21Z
2021-02-07T01:16:21Z,42.805,6.029,13.3004,4.60016,2470.227,2021-2-07T03:17:24Z
2021-02-07T01:19:24Z,42.805,6.029,13.3024,4.60057,2470.227,2021-2-07T03:20:27Z
2021-02-07T01:22:27Z,42.805,6.029,13.3029,4.60037,2470.203,2021-2-07T03:23:30Z
2021-02-07T01:25:30Z,42.805,6.029,13.3015,4.60032,2470.213,2021-2-07T03:26:33Z
2021-02-07T01:28:33Z,42.805,6.029,13.3016,4.60032,2470.227,2021-2-07T03:29:36Z
2021-02-07T01:31:36Z,42.805,6.029,13.3030,4.60072,2470.24,2021-2-07T03:32:39Z
2021-02-07T01:34:39Z,42.805,6.029,13.3024,4.60020,2470.227,2021-2-07T03:35:42Z
2021-02-07T01:37:42Z,42.805,6.029,13.3024,4.60068,2470.24,2021-2-07T03:38:46Z
2021-02-07T01:40:45Z,42.805,6.029,13.3051,4.60003,2470.264,2021-2-07T03:41:49Z
2021-02-07T01:43:49Z,42.805,6.029,13.3011,4.60041,2470.264,2021-2-07T03:44:52Z
2021-02-07T01:46:52Z,42.805,6.029,13.3010,4.60041,2470.227,2021-2-07T03:47:55Z
2021-02-07T01:49:55Z,42.805,6.029,13.3014,4.60046,2470.25,2021-2-07T03:50:58Z
2021-02-07T01:52:58Z,42.805,6.029,13.3032,4.60102,2470.227,2021-2-07T03:54:01Z
2021-02-07T01:56:01Z,42.805,6.029,13.3034,4.60063,2470.273,2021-2-07T03:57:04Z
2021-02-07T01:59:04Z,42.805,6.029,13.3049,4.60032,2470.217,2021-2-07T04:00:07Z
2021-02-07T02:02:07Z,42.805,6.029,13.3009,4.60063,2470.24,2021-2-07T04:03:11Z
2021-02-07T02:05:10Z,42.805,6.029,13.3029,4.60014,2470.287,2021-2-07T04:06:14Z
2021-02-07T02:08:14Z,42.805,6.029,13.3032,4.60057,2470.264,2021-2-07T04:09:17Z
2021-02-07T02:11:17Z,42.805,6.029,13.3026,4.60041,2470.264,2021-2-07T04:12:20Z
2021-02-07T02:14:20Z,42.805,6.029,13.3039,4.60032,2470.217,2021-2-07T04:15:23Z
2021-02-07T02:17:23Z,42.805,6.029,13.3035,4.60052,2470.264,2021-2-07T04:18:26Z
2021-02-07T02:20:26Z,42.805,6.029,13.3037,4.60059,2470.264,2021-2-07T04:21:29Z
2021-02-07T02:23:29Z,42.805,6.029,13.3034,4.60044,2470.24,2021-2-07T04:24:32Z
2021-02-07T02:26:32Z,42.805,6.029,13.3046,4.60076,2470.227,2021-2-07T04:27:35Z
2021-02-07T02:29:35Z,42.805,6.029,13.3062,4.60062,2470.273,2021-2-07T04:30:39Z
2021-02-07T02:32:38Z,42.805,6.029,13.3056,4.60072,2470.273,2021-2-07T04:33:42Z
2021-02-07T02:35:42Z,42.805,6.029,13.3069,4.60099,2470.287,2021-2-07T04:36:45Z
2021-02-07T02:38:45Z,42.805,6.029,13.3056,4.60077,2470.24,2021-2-07T04:39:48Z
2021-02-07T02:41:48Z,42.805,6.029,13.3067,4.60049,2470.264,2021-2-07T04:42:51Z
2021-02-07T02:44:51Z,42.805,6.029,13.3058,4.60054,2470.287,2021-2-07T04:45:54Z
2021-02-07T02:47:54Z,42.805,6.029,13.3059,4.60023,2470.264,2021-2-07T04:48:57Z
2021-02-07T02:50:57Z,42.805,6.029,13.3004,4.60027,2470.25,2021-2-07T04:52:00Z
2021-02-07T02:54:00Z,42.805,6.029,13.3012,4.60055,2470.25,2021-2-07T04:55:04Z
2021-02-07T02:57:03Z,42.805,6.029,13.3063,4.60039,2470.273,2021-2-07T04:58:07Z
2021-02-07T03:00:07Z,42.805,6.029,13.3006,4.60019,2470.25,2021-2-07T05:01:10Z
2021-02-07T03:03:10Z,42.805,6.029,13.3015,4.60033,2470.203,2021-2-07T05:04:13Z
2021-02-07T03:06:13Z,42.805,6.029,13.3014,4.60120,2470.287,2021-2-07T05:07:16Z
2021-02-07T03:09:16Z,42.805,6.029,13.3055,4.60079,2470.287,2021-2-07T05:10:19Z
2021-02-07T03:12:19Z,42.805,6.029,13.3060,4.60049,2470.264,2021-2-07T05:13:22Z
2021-02-07T03:15:22Z,42.805,6.029,13.3050,4.60033,2470.264,2021-2-07T05:16:25Z
2021-02-07T03:18:25Z,42.805,6.029,13.3014,4.60014,2470.297,2021-2-07T05:19:28Z
2021-02-07T03:21:28Z,42.805,6.029,13.3020,4.60070,2470.273,2021-2-07T05:22:32Z
2021-02-07T03:24:31Z,42.805,6.029,13.3056,4.60080,2470.25,2021-2-07T05:25:35Z
2021-02-07T03:27:35Z,42.805,6.029,13.3045,4.60044,2470.31,2021-2-07T05:28:38Z
2021-02-07T03:30:38Z,42.805,6.029,13.3048,4.60076,2470.287,2021-2-07T05:31:41Z
2021-02-07T03:33:41Z,42.805,6.029,13.3050,4.60119,2470.25,2021-2-07T05:34:44Z
2021-02-07T03:36:44Z,42.805,6.029,13.3067,4.60103,2470.273,2021-2-07T05:37:47Z
2021-02-07T03:39:47Z,42.805,6.029,13.3046,4.60096,2470.287,2021-2-07T05:40:50Z
2021-02-07T03:42:50Z,42.805,6.029,13.3046,4.60107,2470.287,2021-2-07T05:43:53Z
2021-02-07T03:45:53Z,42.805,6.029,13.3061,4.60055,2470.287,2021-2-07T05:46:57Z
2021-02-07T03:48:56Z,42.805,6.029,13.3014,4.60110,2470.297,2021-2-07T05:50:00Z
2021-02-07T03:51:59Z,42.805,6.029,13.3036,4.60135,2470.264,2021-2-07T05:53:03Z
2021-02-07T03:55:03Z,42.805,6.029,13.3049,4.60061,2470.273,2021-2-07T05:56:06Z
2021-02-07T03:58:06Z,42.805,6.029,13.3028,4.60067,2470.31,2021-2-07T05:59:09Z
2021-02-07T04:01:09Z,42.805,6.029,13.3051,4.60054,2470.273,2021-2-07T06:02:12Z
2021-02-07T04:04:12Z,42.805,6.029,13.3039,4.60062,2470.287,2021-2-07T06:05:15Z
2021-02-07T04:07:15Z,42.805,6.029,13.3014,4.60067,2470.297,2021-2-07T06:08:18Z
2021-02-07T04:10:18Z,42.805,6.029,13.3042,4.60064,2470.297,2021-2-07T06:11:21Z
2021-02-07T04:13:21Z,42.805,6.029,13.3034,4.60029,2470.297,2021-2-07T06:14:25Z
2021-02-07T04:16:24Z,42.805,6.029,13.3034,4.60058,2470.25,2021-2-07T06:17:28Z
2021-02-07T04:19:28Z,42.805,6.029,13.3006,4.60045,2470.287,2021-2-07T06:20:31Z
2021-02-07T04:22:31Z,42.805,6.029,13.3070,4.60035,2470.297,2021-2-07T06:23:34Z
2021-02-07T04:25:34Z,42.805,6.029,13.3047,4.60031,2470.25,2021-2-07T06:26:37Z
2021-02-07T04:28:37Z,42.805,6.029,13.3007,4.60026,2470.32,2021-2-07T06:29:40Z
2021-02-07T04:31:40Z,42.805,6.029,13.3061,4.60065,2470.31,2021-2-07T06:32:43Z
2021-02-07T04:34:43Z,42.805,6.029,13.3067,4.60060,2470.264,2021-2-07T06:35:46Z
2021-02-07T04:37:46Z,42.805,6.029,13.3015,4.60056,2470.31,2021-2-07T06:38:50Z
2021-02-07T04:40:49Z,42.805,6.029,13.3032,4.60046,2470.287,2021-2-07T06:41:53Z
2021-02-07T04:43:53Z,42.805,6.029,13.3058,4.60028,2470.264,2021-2-07T06:44:56Z
2021-02-07T04:46:56Z,42.805,6.029,13.3026,4.60067,2470.287,2021-2-07T06:47:59Z
2021-02-07T04:49:59Z,42.805,6.029,13.3056,4.60029,2470.264,2021-2-07T06:51:02Z
2021-02-07T04:53:02Z,42.805,6.029,13.3024,4.60057,2470.31,2021-2-07T06:54:05Z
2021-02-07T04:56:05Z,42.805,6.029,13.3049,4.60039,2470.334,2021-2-07T06:57:08Z
2021-02-07T04:59:08Z,42.805,6.029,13.3031,4.60061,2470.297,2021-2-07T07:00:11Z
2021-02-07T05:02:11Z,42.805,6.029,13.3013,4.60054,2470.31,2021-2-07T07:03:15Z
2021-02-07T05:05:14Z,42.805,6.029,13.3031,4.60078,2470.24,2021-2-07T07:06:18Z
2021-02-07T05:08:17Z,42.805,6.029,13.3030,4.60050,2470.297,2021-2-07T07:09:21Z
2021-02-07T05:11:21Z,42.805,6.029,13.3031,4.60016,2470.334,2021-2-07T07:12:24Z
2021-02-07T05:14:24Z,42.805,6.029,13.3013,4.60026,2470.287,2021-2-07T07:15:27Z
2021-02-07T05:17:27Z,42.805,6.029,13.3040,4.60057,2470.334,2021-2-07T07:18:30Z
2021-02-07T05:20:30Z,42.805,6.029,13.3046,4.60035,2470.31,2021-2-07T07:21:33Z
2021-02-07T05:23:33Z,42.805,6.029,13.3037,4.60064,2470.273,2021-2-07T07:24:36Z
2021-02-07T05:26:36Z,42.805,6.029,13.3039,4.60085,2470.273,2021-2-07T07:27:39Z
2021-02-07T05:29:39Z,42.805,6.029,13.3054,4.60084,2470.273,2021-2-07T07:30:43Z
2021-02-07T05:32:42Z,42.805,6.029,13.3054,4.60069,2470.287,2021-2-07T07:33:46Z
2021-02-07T05:35:46Z,42.805,6.029,13.3036,4.60055,2470.287,2021-2-07T07:36:49Z
2021-02-07T05:38:49Z,42.805,6.029,13.3039,4.60041,2470.273,2021-2-07T07:39:52Z
2021-02-07T05:41:52Z,42.805,6.029,13.3077,4.60050,2470.334,2021-2-07T07:42:55Z
2021-02-07T05:44:55Z,42.805,6.029,13.3088,4.60051,2470.334,2021-2-07T07:45:58Z
2021-02-07T05:47:58Z,42.805,6.029,13.3029,4.60058,2470.273,2021-2-07T07:49:01Z
2021-02-07T05:51:01Z,42.805,6.029,13.3050,4.60072,2470.287,2021-2-07T07:52:04Z
2021-02-07T05:54:04Z,42.805,6.029,13.3054,4.60063,2470.287,2021-2-07T07:55:07Z
2021-02-07T05:57:07Z,42.805,6.029,13.3060,4.60067,2470.31,2021-2-07T07:58:11Z
2021-02-07T06:00:10Z,42.805,6.029,13.3050,4.60059,2470.264,2021-2-07T08:01:14Z
2021-02-07T06:03:14Z,42.805,6.029,13.3054,4.60068,2470.264,2021-2-07T08:04:17Z
2021-02-07T06:06:17Z,42.805,6.029,13.3033,4.60064,2470.25,2021-2-07T08:07:20Z
2021-02-07T06:09:20Z,42.805,6.029,13.3040,4.60094,2470.25,2021-2-07T08:10:23Z
2021-02-07T06:12:23Z,42.805,6.029,13.3041,4.60099,2470.31,2021-2-07T08:13:26Z
2021-02-07T06:15:26Z,42.805,6.029,13.3060,4.60081,2470.264,2021-2-07T08:16:29Z
2021-02-07T06:18:29Z,42.805,6.029,13.3044,4.60062,2470.287,2021-2-07T08:19:32Z
2021-02-07T06:21:32Z,42.805,6.029,13.3026,4.60063,2470.264,2021-2-07T08:22:36Z
2021-02-07T06:24:35Z,42.805,6.029,13.3029,4.60125,2470.227,2021-2-07T08:25:39Z
2021-02-07T06:27:39Z,42.805,6.029,13.3028,4.60058,2470.264,2021-2-07T08:28:42Z
2021-02-07T06:30:42Z,42.805,6.029,13.3042,4.60103,2470.25,2021-2-07T08:31:45Z
2021-02-07T06:33:45Z,42.805,6.029,13.3057,4.60068,2470.264,2021-2-07T08:34:48Z
2021-02-07T06:36:48Z,42.805,6.029,13.3039,4.60115,2470.287,2021-2-07T08:37:51Z
2021-02-07T06:39:51Z,42.805,6.029,13.3050,4.60081,2470.264,2021-2-07T08:40:54Z
2021-02-07T06:42:54Z,42.805,6.029,13.3036,4.60070,2470.227,2021-2-07T08:43:57Z
2021-02-07T06:45:57Z,42.805,6.029,13.3028,4.60042,2470.273,2021-2-07T08:47:00Z
2021-02-07T06:49:00Z,42.805,6.029,13.3015,4.60081,2470.287,2021-2-07T08:50:04Z
2021-02-07T06:52:03Z,42.805,6.029,13.3039,4.60057,2470.264,2021-2-07T08:53:07Z
2021-02-07T06:55:07Z,42.805,6.029,13.3019,4.60049,2470.273,2021-2-07T08:56:10Z
2021-02-07T06:58:10Z,42.805,6.029,13.3004,4.60082,2470.217,2021-2-07T08:59:13Z
2021-02-07T07:01:13Z,42.805,6.029,13.3022,4.60083,2470.273,2021-2-07T09:02:16Z
2021-02-07T07:04:16Z,42.805,6.029,13.3034,4.60055,2470.273,2021-2-07T09:05:19Z
2021-02-07T07:07:19Z,42.805,6.029,13.3001,4.60052,2470.287,2021-2-07T09:08:22Z
2021-02-07T07:10:22Z,42.805,6.029,13.3035,4.60059,2470.24,2021-2-07T09:11:25Z
2021-02-07T07:13:25Z,42.805,6.029,13.3020,4.60068,2470.25,2021-2-07T09:14:29Z
2021-02-07T07:16:28Z,42.805,6.029,13.3040,4.60064,2470.227,2021-2-07T09:17:32Z
2021-02-07T07:19:32Z,42.805,6.029,13.3028,4.60059,2470.24,2021-2-07T09:20:35Z
2021-02-07T07:22:35Z,42.805,6.029,13.3031,4.60051,2470.227,2021-2-07T09:23:38Z
2021-02-07T07:25:38Z,42.805,6.029,13.3036,4.60079,2470.24,2021-2-07T09:26:41Z
2021-02-07T07:28:41Z,42.805,6.029,13.3053,4.60088,2470.264,2021-2-07T09:29:44Z
2021-02-07T07:31:44Z,42.805,6.029,13.3027,4.60059,2470.24,2021-2-07T09:32:47Z
2021-02-07T07:34:47Z,42.805,6.029,13.3034,4.60063,2470.227,2021-2-07T09:35:50Z
2021-02-07T07:37:50Z,42.805,6.029,13.3015,4.60033,2470.273,2021-2-07T09:38:54Z
2021-02-07T07:40:53Z,42.805,6.029,13.3042,4.60045,2470.25,2021-2-07T09:41:57Z
2021-02-07T07:43:57Z,42.805,6.029,13.3034,4.60067,2470.25,2021-2-07T09:45:00Z
2021-02-07T07:47:00Z,42.805,6.029,13.3043,4.60061,2470.264,2021-2-07T09:48:03Z
2021-02-07T07:50:03Z,42.805,6.029,13.3038,4.60049,2470.254,2021-2-07T09:51:06Z
2021-02-07T07:53:06Z,42.805,6.029,13.3029,4.60054,2470.264,2021-2-07T09:54:09Z
2021-02-07T07:56:09Z,42.805,6.029,13.3037,4.60069,2470.264,2021-2-07T09:57:12Z
2021-02-07T07:59:12Z,42.805,6.029,13.3013,4.60075,2470.24,2021-2-07T10:00:15Z
2021-02-07T08:02:15Z,42.805,6.029,13.3013,4.60057,2470.264,2021-2-07T10:03:18Z
2021-02-07T08:05:18Z,42.805,6.029,13.3031,4.60056,2470.203,2021-2-07T10:06:22Z
2021-02-07T08:08:21Z,42.805,6.029,13.3024,4.60043,2470.227,2021-2-07T10:09:25Z
2021-02-07T08:11:25Z,42.805,6.029,13.3030,4.60032,2470.217,2021-2-07T10:12:28Z
2021-02-07T08:14:28Z,42.805,6.029,13.3009,4.60064,2470.227,2021-2-07T10:15:31Z
2021-02-07T08:17:31Z,42.805,6.029,13.3022,4.60062,2470.227,2021-2-07T10:18:34Z
2021-02-07T08:20:34Z,42.805,6.029,13.3033,4.60050,2470.203,2021-2-07T10:21:37Z
2021-02-07T08:23:37Z,42.805,6.029,13.3011,4.60039,2470.227,2021-2-07T10:24:40Z
2021-02-07T08:26:40Z,42.805,6.029,13.2996,4.60039,2470.264,2021-2-07T10:27:43Z
2021-02-07T08:29:43Z,42.805,6.029,13.3015,4.60059,2470.203,2021-2-07T10:30:47Z
2021-02-07T08:32:46Z,42.805,6.029,13.3014,4.60041,2470.227,2021-2-07T10:33:50Z
2021-02-07T08:35:50Z,42.805,6.029,13.3015,4.60046,2470.227,2021-2-07T10:36:53Z
2021-02-07T08:38:53Z,42.805,6.029,13.3018,4.60057,2470.203,2021-2-07T10:39:56Z
2021-02-07T08:41:56Z,42.805,6.029,13.3026,4.60057,2470.217,2021-2-07T10:42:59Z
2021-02-07T08:44:59Z,42.805,6.029,13.3022,4.60029,2470.203,2021-2-07T10:46:02Z
2021-02-07T08:48:02Z,42.805,6.029,13.3025,4.60033,2470.217,2021-2-07T10:49:05Z
2021-02-07T08:51:05Z,42.805,6.029,13.3024,4.60057,2470.227,2021-2-07T10:52:08Z
2021-02-07T08:54:08Z,42.805,6.029,13.3003,4.60045,2470.24,2021-2-07T10:55:12Z
2021-02-07T08:57:11Z,42.805,6.029,13.3015,4.60040,2470.217,2021-2-07T10:58:15Z
2021-02-07T09:00:15Z,42.805,6.029,13.3021,4.60053,2470.217,2021-2-07T11:01:18Z
2021-02-07T09:03:18Z,42.805,6.029,13.3019,4.60054,2470.18,2021-2-07T11:04:21Z
2021-02-07T09:06:21Z,42.805,6.029,13.3026,4.60021,2470.194,2021-2-07T11:07:24Z
2021-02-07T09:09:24Z,42.805,6.029,13.3019,4.60050,2470.217,2021-2-07T11:10:27Z
2021-02-07T09:12:27Z,42.805,6.029,13.3012,4.60051,2470.194,2021-2-07T11:13:30Z
2021-02-07T09:15:30Z,42.805,6.029,13.3000,4.60028,2470.217,2021-2-07T11:16:33Z
2021-02-07T09:18:33Z,42.805,6.029,13.3031,4.60054,2470.203,2021-2-07T11:19:37Z
2021-02-07T09:21:36Z,42.805,6.029,13.3019,4.60054,2470.217,2021-2-07T11:22:40Z
2021-02-07T09:24:40Z,42.805,6.029,13.3034,4.60054,2470.18,2021-2-07T11:25:43Z
2021-02-07T09:27:43Z,42.805,6.029,13.3021,4.60063,2470.171,2021-2-07T11:28:46Z
2021-02-07T09:30:46Z,42.805,6.029,13.3025,4.60055,2470.18,2021-2-07T11:31:49Z
2021-02-07T09:33:49Z,42.805,6.029,13.3031,4.60060,2470.171,2021-2-07T11:34:52Z
2021-02-07T09:36:52Z,42.805,6.029,13.2999,4.60052,2470.194,2021-2-07T11:37:55Z
2021-02-07T09:39:55Z,42.805,6.029,13.3019,4.60044,2470.18,2021-2-07T11:40:58Z
2021-02-07T09:42:58Z,42.805,6.029,13.3024,4.60050,2470.217,2021-2-07T11:44:02Z
2021-02-07T09:46:01Z,42.805,6.029,13.2997,4.60059,2470.18,2021-2-07T11:47:05Z
2021-02-07T09:49:05Z,42.805,6.029,13.3015,4.60054,2470.194,2021-2-07T11:50:08Z
2021-02-07T09:52:08Z,42.805,6.029,13.3006,4.60040,2470.203,2021-2-07T11:53:11Z
2021-02-07T09:55:11Z,42.805,6.029,13.3011,4.60039,2470.194,2021-2-07T11:56:14Z
2021-02-07T09:58:14Z,42.805,6.029,13.3027,4.60046,2470.156,2021-2-07T11:59:17Z
2021-02-07T10:01:17Z,42.805,6.029,13.3021,4.60042,2470.133,2021-2-07T12:02:20Z
2021-02-07T10:04:20Z,42.805,6.029,13.3004,4.60030,2470.227,2021-2-07T12:05:23Z
2021-02-07T10:07:23Z,42.805,6.029,13.3015,4.60037,2470.171,2021-2-07T12:08:27Z
2021-02-07T10:10:26Z,42.805,6.029,13.3014,4.60037,2470.203,2021-2-07T12:11:30Z
2021-02-07T10:13:30Z,42.805,6.029,13.3010,4.60044,2470.18,2021-2-07T12:14:33Z
2021-02-07T10:16:33Z,42.805,6.029,13.3005,4.60049,2470.18,2021-2-07T12:17:36Z
2021-02-07T10:19:36Z,42.805,6.029,13.3029,4.60038,2470.217,2021-2-07T12:20:39Z
2021-02-07T10:22:39Z,42.805,6.029,13.3005,4.60043,2470.203,2021-2-07T12:23:42Z
2021-02-07T10:25:42Z,42.805,6.029,13.3006,4.60038,2470.18,2021-2-07T12:26:45Z
2021-02-07T10:28:45Z,42.805,6.029,13.3019,4.60033,2470.194,2021-2-07T12:29:48Z
2021-02-07T10:31:48Z,42.805,6.029,13.3019,4.60048,2470.171,2021-2-07T12:32:52Z
2021-02-07T10:34:51Z,42.805,6.029,13.3005,4.60042,2470.156,2021-2-07T12:35:55Z
2021-02-07T10:37:55Z,42.805,6.029,13.2993,4.60026,2470.194,2021-2-07T12:38:58Z
2021-02-07T10:40:58Z,42.805,6.029,13.3011,4.60042,2470.18,2021-2-07T12:42:01Z
2021-02-07T10:44:01Z,42.805,6.029,13.3004,4.60046,2470.194,2021-2-07T12:45:04Z
2021-02-07T10:47:04Z,42.805,6.029,13.3005,4.60029,2470.18,2021-2-07T12:48:07Z
2021-02-07T10:50:07Z,42.805,6.029,13.3019,4.60021,2470.194,2021-2-07T12:51:10Z
2021-02-07T10:53:10Z,42.805,6.029,13.3005,4.60029,2470.18,2021-2-07T12:54:13Z
2021-02-07T10:56:13Z,42.805,6.029,13.3014,4.60041,2470.203,2021-2-07T12:57:16Z
2021-02-07T10:59:16Z,42.805,6.029,13.2990,4.60021,2470.217,2021-2-07T13:00:20Z
2021-02-07T11:02:19Z,42.805,6.029,13.3004,4.60046,2470.194,2021-2-07T13:03:23Z
2021-02-07T11:05:23Z,42.805,6.029,13.3014,4.60039,2470.18,2021-2-07T13:06:26Z
2021-02-07T11:08:26Z,42.805,6.029,13.3002,4.60047,2470.18,2021-2-07T13:09:29Z
2021-02-07T11:11:29Z,42.805,6.029,13.2999,4.60034,2470.194,2021-2-07T13:12:32Z
2021-02-07T11:14:32Z,42.805,6.029,13.2992,4.60034,2470.18,2021-2-07T13:15:35Z
2021-02-07T11:17:35Z,42.805,6.029,13.3000,4.60046,2470.156,2021-2-07T13:18:38Z
2021-02-07T11:20:38Z,42.805,6.029,13.3004,4.60042,2470.18,2021-2-07T13:21:41Z
2021-02-07T11:23:41Z,42.805,6.029,13.3004,4.60026,2470.18,2021-2-07T13:24:45Z
2021-02-07T11:26:44Z,42.805,6.029,13.2996,4.60029,2470.18,2021-2-07T13:27:48Z
2021-02-07T11:29:48Z,42.805,6.029,13.3005,4.60045,2470.203,2021-2-07T13:30:51Z
2021-02-07T11:32:51Z,42.805,6.029,13.3009,4.60025,2470.18,2021-2-07T13:33:54Z
2021-02-07T11:35:54Z,42.805,6.029,13.2996,4.60021,2470.194,2021-2-07T13:36:57Z
2021-02-07T11:38:57Z,42.805,6.029,13.3024,4.60052,2470.217,2021-2-07T13:40:00Z
2021-02-07T11:42:00Z,42.805,6.029,13.3006,4.60044,2470.203,2021-2-07T13:43:03Z
2021-02-07T11:45:03Z,42.805,6.029,13.2993,4.60022,2470.217,2021-2-07T13:46:06Z
2021-02-07T11:48:06Z,42.805,6.029,13.2993,4.60019,2470.227,2021-2-07T13:49:10Z
2021-02-07T11:51:09Z,42.805,6.029,13.2999,4.60024,2470.203,2021-2-07T13:52:13Z
2021-02-07T11:54:13Z,42.805,6.029,13.3001,4.60039,2470.203,2021-2-07T13:55:16Z
2021-02-07T11:57:16Z,42.805,6.029,13.2996,4.60026,2470.156,2021-2-07T13:58:19Z
2021-02-07T12:00:19Z,42.805,6.029,13.3005,4.60033,2470.217,2021-2-07T14:01:22Z
2021-02-07T12:03:22Z,42.805,6.029,13.2994,4.60019,2470.194,2021-2-07T14:04:25Z
2021-02-07T12:06:25Z,42.805,6.029,13.3006,4.60031,2470.18,2021-2-07T14:07:28Z
2021-02-07T12:09:28Z,42.805,6.029,13.3001,4.60028,2470.203,2021-2-07T14:10:31Z
2021-02-07T12:12:31Z,42.805,6.029,13.3000,4.60035,2470.203,2021-2-07T14:13:35Z
2021-02-07T12:15:34Z,42.805,6.029,13.2992,4.60028,2470.194,2021-2-07T14:16:38Z
2021-02-07T12:18:38Z,42.805,6.029,13.2997,4.60026,2470.18,2021-2-07T14:19:41Z
2021-02-07T12:21:41Z,42.805,6.029,13.3009,4.60016,2470.227,2021-2-07T14:22:44Z
2021-02-07T12:24:44Z,42.805,6.029,13.2993,4.60017,2470.217,2021-2-07T14:25:47Z
2021-02-07T12:27:47Z,42.805,6.029,13.2999,4.60047,2470.203,2021-2-07T14:28:50Z
2021-02-07T12:30:50Z,42.805,6.029,13.2998,4.60026,2470.227,2021-2-07T14:31:53Z
2021-02-07T12:33:53Z,42.805,6.029,13.2989,4.60017,2470.217,2021-2-07T14:34:56Z
2021-02-07T12:36:56Z,42.805,6.029,13.3002,4.60039,2470.24,2021-2-07T14:38:00Z
2021-02-07T12:39:59Z,42.805,6.029,13.3004,4.60039,2470.203,2021-2-07T14:41:03Z
2021-02-07T12:43:03Z,42.805,6.029,13.3003,4.60039,2470.217,2021-2-07T14:44:06Z
2021-02-07T12:46:06Z,42.805,6.029,13.3007,4.60033,2470.18,2021-2-07T14:47:09Z
2021-02-07T12:49:09Z,42.805,6.029,13.2991,4.60011,2470.203,2021-2-07T14:50:12Z
2021-02-07T12:52:12Z,42.805,6.029,13.2990,4.60016,2470.217,2021-2-07T14:53:15Z
2021-02-07T12:55:15Z,42.805,6.029,13.3004,4.60033,2470.203,2021-2-07T14:56:18Z
2021-02-07T12:58:18Z,42.805,6.029,13.3006,4.60018,2470.227,2021-2-07T14:59:21Z
2021-02-07T13:01:21Z,42.805,6.029,13.3010,4.60041,2470.227,2021-2-07T15:02:25Z
2021-02-07T13:04:24Z,42.805,6.029,13.3020,4.60026,2470.203,2021-2-07T15:05:28Z
2021-02-07T13:07:28Z,42.805,6.029,13.3004,4.60053,2470.171,2021-2-07T15:08:31Z
2021-02-07T13:10:31Z,42.805,6.029,13.3004,4.60050,2470.25,2021-2-07T15:11:34Z
2021-02-07T13:13:34Z,42.805,6.029,13.3016,4.60055,2470.203,2021-2-07T15:14:37Z
2021-02-07T13:16:37Z,42.805,6.029,13.3009,4.60042,2470.203,2021-2-07T15:17:40Z
2021-02-07T13:19:40Z,42.805,6.029,13.3013,4.60059,2470.227,2021-2-07T15:20:43Z
2021-02-07T13:22:43Z,42.805,6.029,13.3009,4.60052,2470.227,2021-2-07T15:23:46Z
2021-02-07T13:25:46Z,42.805,6.029,13.3017,4.60044,2470.24,2021-2-07T15:26:49Z
2021-02-07T13:28:49Z,42.805,6.029,13.3004,4.60059,2470.264,2021-2-07T15:29:53Z
2021-02-07T13:31:52Z,42.805,6.029,13.3026,4.60029,2470.227,2021-2-07T15:32:56Z
2021-02-07T13:34:56Z,42.805,6.029,13.3018,4.60051,2470.203,2021-2-07T15:35:59Z
2021-02-07T13:37:59Z,42.805,6.029,13.3011,4.60051,2470.203,2021-2-07T15:39:02Z
2021-02-07T13:41:02Z,42.805,6.029,13.3019,4.60044,2470.227,2021-2-07T15:42:05Z
2021-02-07T13:44:05Z,42.805,6.029,13.3018,4.60029,2470.203,2021-2-07T15:45:08Z
2021-02-07T13:47:08Z,42.805,6.029,13.3012,4.60072,2470.227,2021-2-07T15:48:11Z
2021-02-07T13:50:11Z,42.805,6.029,13.3014,4.60033,2470.227,2021-2-07T15:51:15Z
2021-02-07T13:53:14Z,42.805,6.029,13.3011,4.60056,2470.227,2021-2-07T15:54:18Z
2021-02-07T13:56:17Z,42.805,6.029,13.3013,4.60054,2470.24,2021-2-07T15:57:21Z
2021-02-07T13:59:21Z,42.805,6.029,13.2996,4.60028,2470.203,2021-2-07T16:00:24Z
2021-02-07T14:02:24Z,42.805,6.029,13.3011,4.60036,2470.25,2021-2-07T16:03:27Z
2021-02-07T14:05:27Z,42.805,6.029,13.3014,4.60042,2470.203,2021-2-07T16:06:30Z
2021-02-07T14:08:30Z,42.805,6.029,13.3010,4.60039,2470.227,2021-2-07T16:09:33Z
2021-02-07T14:11:33Z,42.805,6.029,13.3011,4.60060,2470.227,2021-2-07T16:12:36Z
2021-02-07T14:14:36Z,42.805,6.029,13.3018,4.60062,2470.25,2021-2-07T16:15:39Z
2021-02-07T14:17:39Z,42.805,6.029,13.3000,4.60052,2470.217,2021-2-07T16:18:43Z
2021-02-07T14:20:42Z,42.805,6.029,13.3004,4.60060,2470.227,2021-2-07T16:21:46Z
2021-02-07T14:23:46Z,42.805,6.029,13.3002,4.60052,2470.227,2021-2-07T16:24:49Z
2021-02-07T14:26:49Z,42.805,6.029,13.3010,4.60049,2470.227,2021-2-07T16:27:52Z
2021-02-07T14:29:52Z,42.805,6.029,13.3011,4.60051,2470.217,2021-2-07T16:30:55Z
2021-02-07T14:32:55Z,42.805,6.029,13.3029,4.60069,2470.24,2021-2-07T16:33:58Z
2021-02-07T14:35:58Z,42.805,6.029,13.3010,4.60058,2470.264,2021-2-07T16:37:01Z
2021-02-07T14:39:01Z,42.805,6.029,13.3015,4.60059,2470.227,2021-2-07T16:40:04Z
2021-02-07T14:42:04Z,42.805,6.029,13.3001,4.60077,2470.25,2021-2-07T16:43:08Z
2021-02-07T14:45:07Z,42.805,6.029,13.3034,4.60047,2470.25,2021-2-07T16:46:11Z
2021-02-07T14:48:11Z,42.805,6.029,13.3014,4.60073,2470.24,2021-2-07T16:49:14Z
2021-02-07T14:51:14Z,42.805,6.029,13.3042,4.60057,2470.264,2021-2-07T16:52:17Z
2021-02-07T14:54:17Z,42.805,6.029,13.3013,4.60054,2470.25,2021-2-07T16:55:20Z
2021-02-07T14:57:20Z,42.805,6.029,13.3016,4.60053,2470.25,2021-2-07T16:58:23Z
2021-02-07T15:00:23Z,42.805,6.029,13.3008,4.60026,2470.264,2021-2-07T17:01:26Z
2021-02-07T15:03:26Z,42.805,6.029,13.2996,4.60032,2470.203,2021-2-07T17:04:29Z
2021-02-07T15:06:29Z,42.805,6.029,13.2991,4.60029,2470.264,2021-2-07T17:07:33Z
2021-02-07T15:09:32Z,42.805,6.029,13.3004,4.60056,2470.25,2021-2-07T17:10:36Z